Flag for Germany Weather past 2 weeks in Leverkusen, North Rhine-Westphalia, Germany

Now
39 °F

Sprinkles. Partly sunny.


Feels Like: 30 °F
Forecast: 36 / 46 °F
Wind: 17 mph from Northwest

Location: Koeln / Bonn

Current Time: Apr 1, 2015 at 12:24:16 PM

Latest Report: Apr 1, 2015 at 11:50 AM


Visibility: 6 mi

Pressure: 30.07 "Hg

Humidity: 81%

Dew point: 34 °F

Location of LeverkusenLocation

Historic Weather in Leverkusen — Graph

°F

Leverkusen temperature yesterday

Maximum temperature yesterday: 54 °F (at 4:20 AM)
Minimum temperature yesterday: 41 °F (at 12:50 AM)
Average temperature yesterday: 48 °F

Past Weeks' High & Low Weather Summary

 TemperatureHumidityPressure
High66 °F (Mar 17, 3:50 PM)100% (Mar 18, 5:50 AM)30.36 "Hg (Mar 18, 5:50 AM)
Low28 °F (Mar 23, 5:20 AM)28% (Mar 17, 3:50 PM)29.33 "Hg (Mar 31, 5:20 AM)
Average45 °F74%29.96 "Hg
* Reported Mar 17 10:20 AM — Apr 1 11:20 AM, Leverkusen, Weather by CustomWeather, © 2015

Note: Actual official high and low records may vary slightly from our data, if they occured in-between our weather recording intervals... More about our weather records

Advertising

Leverkusen weather history for previous 24 hours

 ConditionsComfort  
Time TempWeatherWind HumidityBarometerVisibility
11:20 AM
Wed, Apr 1
41 °FSprinkles. Partly sunny.17 mph70%30.07 "HgN/A
10:50 AM41 °FSprinkles. Partly sunny.16 mph76%30.07 "HgN/A
10:20 AM41 °FSprinkles. Broken clouds.22 mph70%30.04 "HgN/A
9:50 AM41 °FSprinkles. Broken clouds.15 mph70%30.04 "HgN/A
9:20 AM41 °FScattered showers. Partly sunny.18 mph70%30.01 "HgN/A
8:50 AM41 °FScattered showers. Partly sunny.21 mph70%30.01 "HgN/A
8:20 AM41 °FScattered showers. Partly sunny.17 mph70%29.98 "HgN/A
7:50 AM39 °FPassing clouds.23 mph70%29.98 "HgN/A
7:20 AM39 °FPassing clouds.18 mph75%29.95 "HgN/A
6:50 AM39 °FSprinkles. Partly cloudy.16 mph70%29.95 "HgN/A
6:20 AM41 °FPassing clouds.17 mph61%29.95 "HgN/A
5:50 AM41 °FSprinkles. Passing clouds.15 mph66%29.92 "HgN/A
5:20 AM41 °FSprinkles. Passing clouds.17 mph66%29.92 "HgN/A
4:50 AM41 °FPassing clouds.22 mph66%29.92 "HgN/A
4:20 AM41 °FPartly cloudy.16 mph66%29.89 "HgN/A
3:50 AM41 °FPassing clouds.15 mph66%29.89 "HgN/A
3:20 AM41 °FSprinkles. Passing clouds.18 mph70%29.89 "HgN/A
2:50 AM41 °FPassing clouds.22 mph66%29.89 "HgN/A
2:20 AM41 °FPartly cloudy.18 mph70%29.86 "HgN/A
1:50 AM41 °FPassing clouds.18 mph76%29.86 "HgN/A
1:20 AM41 °FPassing clouds.17 mph76%29.86 "HgN/A
12:50 AM41 °FPassing clouds.16 mph76%29.86 "HgN/A
12:20 AM41 °FPassing clouds.12 mph70%29.86 "HgN/A
11:50 PM
Tue, Mar 31
43 °FPassing clouds.21 mph71%29.83 "HgN/A
11:20 PM41 °FPartly cloudy.20 mph76%29.83 "HgN/A
10:50 PM43 °FPassing clouds.24 mph71%29.83 "HgN/A
10:20 PM41 °FPassing clouds.15 mph81%29.83 "HgN/A
9:50 PM43 °FClear.20 mph76%29.80 "Hg10 mi
9:20 PM43 °FPassing clouds.22 mph76%29.83 "HgN/A
8:50 PM41 °FScattered showers. Scattered clouds.25 mph81%29.80 "HgN/A
8:20 PM43 °FThundershowers. Partly sunny.14 mph76%29.77 "HgN/A
7:50 PM43 °FStrong thunderstorms. Broken clouds.40 mph76%29.80 "HgN/A
7:20 PM46 °FSprinkles. Scattered clouds.30 mph66%29.74 "HgN/A
6:50 PM50 °FScattered showers. Scattered clouds.15 mph47%29.74 "HgN/A
6:20 PM50 °FSprinkles. Scattered clouds.30 mph47%29.74 "HgN/A
5:50 PM50 °FScattered showers. Scattered clouds.32 mph43%29.71 "HgN/A
5:20 PM50 °FScattered showers. Scattered clouds.26 mph43%29.71 "HgN/A
4:50 PM52 °FScattered showers. Scattered clouds.26 mph41%29.68 "HgN/A
4:20 PM52 °FScattered showers. Partly sunny.36 mph44%29.65 "HgN/A
3:50 PM52 °FScattered showers. Scattered clouds.32 mph47%29.62 "HgN/A
3:20 PM50 °FSprinkles. Scattered clouds.22 mph58%29.62 "HgN/A
2:50 PM50 °FScattered showers. Scattered clouds.31 mph62%29.62 "HgN/A
2:20 PM46 °FRain showers. Partly sunny.36 mph71%29.59 "HgN/A
1:50 PM52 °FSprinkles. Scattered clouds.31 mph58%29.56 "HgN/A
1:20 PM52 °FSprinkles. Scattered clouds.30 mph58%29.53 "HgN/A
12:50 PM50 °FRain showers. Partly sunny.40 mph62%29.53 "HgN/A
12:20 PM52 °FSprinkles. Partly sunny.28 mph58%29.50 "HgN/A
Weather by CustomWeather, © 2015

See weather overviewHow to use our weather pages